Time,TemperatureF,DewpointF,PressureIn,WindDirection,WindDirectionDegrees,WindSpeedMPH,WindSpeedGustMPH,Humidity,HourlyPrecipIn,Conditions,Clouds,dailyrainin,SoftwareType,DateUTC
2013-01-27 00:01:00,10.0,1.2,30.17,WSW,247,6.0,22.0,67,0.00,,,0.00,Weather View 32 v70,2013-01-27 05:01:00,
2013-01-27 00:31:00,10.0,1.2,30.16,West,270,4.0,26.0,67,0.00,,,0.00,Weather View 32 v70,2013-01-27 05:31:00,
2013-01-27 00:37:00,10.0,1.2,30.16,West,270,4.0,26.0,67,0.00,,,0.00,Weather View 32 v70,2013-01-27 05:37:00,
2013-01-27 01:03:00,11.0,1.9,30.16,WSW,247,8.0,26.0,66,0.00,,,0.00,Weather View 32 v70,2013-01-27 06:03:00,
2013-01-27 01:30:00,10.0,0.6,30.17,WNW,292,14.0,24.0,65,0.00,,,0.00,Weather View 32 v70,2013-01-27 06:30:00,
2013-01-27 01:31:00,10.0,0.6,30.17,WNW,292,14.0,24.0,65,0.00,,,0.00,Weather View 32 v70,2013-01-27 06:31:00,
2013-01-27 02:01:00,10.0,1.2,30.18,SW,225,10.0,24.0,67,0.00,,,0.00,Weather View 32 v70,2013-01-27 07:01:00,
2013-01-27 02:30:00,9.0,1.2,30.20,NNW,337,7.0,29.0,70,0.00,,,0.00,Weather View 32 v70,2013-01-27 07:30:00,
2013-01-27 02:32:00,9.0,1.2,30.20,NNW,337,7.0,29.0,70,0.00,,,0.00,Weather View 32 v70,2013-01-27 07:32:00,
2013-01-27 03:03:00,9.0,0.3,30.19,WSW,247,9.0,29.0,67,0.00,,,0.00,Weather View 32 v70,2013-01-27 08:03:00,
2013-01-27 03:30:00,9.0,0.6,30.21,WNW,292,10.0,25.0,68,0.00,,,0.00,Weather View 32 v70,2013-01-27 08:30:00,
2013-01-27 03:31:00,9.0,0.6,30.21,WNW,292,10.0,25.0,68,0.00,,,0.00,Weather View 32 v70,2013-01-27 08:31:00,
2013-01-27 04:02:00,8.0,0.3,30.22,WSW,247,7.0,20.0,70,0.00,,,0.00,Weather View 32 v70,2013-01-27 09:02:00,
2013-01-27 04:30:00,7.0,-0.1,30.23,WNW,292,7.0,19.0,72,0.00,,,0.00,Weather View 32 v70,2013-01-27 09:30:00,
2013-01-27 04:32:00,7.0,-0.1,30.23,WNW,292,7.0,19.0,72,0.00,,,0.00,Weather View 32 v70,2013-01-27 09:32:00,
2013-01-27 05:00:00,7.0,0.2,30.25,WNW,292,9.0,19.0,73,0.00,,,0.00,Weather View 32 v70,2013-01-27 10:00:00,
2013-01-27 05:30:00,6.0,-1.1,30.26,WSW,247,8.0,23.0,72,0.00,,,0.00,Weather View 32 v70,2013-01-27 10:30:00,
2013-01-27 05:32:00,6.0,-1.1,30.26,WSW,247,8.0,23.0,72,0.00,,,0.00,Weather View 32 v70,2013-01-27 10:32:00,
2013-01-27 06:00:00,6.0,-1.4,30.28,WSW,247,8.0,24.0,71,0.00,,,0.00,Weather View 32 v70,2013-01-27 11:00:00,
2013-01-27 06:32:00,6.0,-1.4,30.30,NW,315,20.0,25.0,71,0.00,,,0.00,Weather View 32 v70,2013-01-27 11:32:00,
2013-01-27 07:02:00,6.0,-0.8,30.31,West,270,8.0,25.0,73,0.00,,,0.00,Weather View 32 v70,2013-01-27 12:02:00,
2013-01-27 07:32:00,6.0,-1.1,30.33,North,360,1.0,25.0,72,0.00,,,0.00,Weather View 32 v70,2013-01-27 12:32:00,
2013-01-27 08:03:00,7.0,-0.7,30.33,West,270,7.0,23.0,70,0.00,,,0.00,Weather View 32 v70,2013-01-27 13:03:00,
2013-01-27 08:31:00,8.0,-0.7,30.34,West,270,10.0,34.0,67,0.00,,,0.00,Weather View 32 v70,2013-01-27 13:31:00,
2013-01-27 09:03:00,9.0,-0.4,30.35,WSW,247,18.0,34.0,65,0.00,,,0.00,Weather View 32 v70,2013-01-27 14:03:00,
2013-01-27 09:08:00,9.0,-0.4,30.35,WSW,247,18.0,34.0,65,0.00,,,0.00,Weather View 32 v70,2013-01-27 14:08:00,
2013-01-27 09:34:00,10.0,0.6,30.37,WNW,292,6.0,26.0,65,0.00,,,0.00,Weather View 32 v70,2013-01-27 14:34:00,
2013-01-27 10:00:00,11.0,0.9,30.37,WNW,292,10.0,27.0,63,0.00,,,0.00,Weather View 32 v70,2013-01-27 15:00:00,
2013-01-27 10:01:00,11.0,0.9,30.37,WNW,292,10.0,27.0,63,0.00,,,0.00,Weather View 32 v70,2013-01-27 15:01:00,
2013-01-27 10:33:00,13.0,2.1,30.36,WSW,247,17.0,32.0,61,0.00,,,0.00,Weather View 32 v70,2013-01-27 15:33:00,
2013-01-27 11:00:00,15.0,2.9,30.35,WNW,292,16.0,32.0,58,0.00,,,0.00,Weather View 32 v70,2013-01-27 16:00:00,
2013-01-27 11:04:00,15.0,2.9,30.35,WNW,292,16.0,32.0,58,0.00,,,0.00,Weather View 32 v70,2013-01-27 16:04:00,
2013-01-27 11:30:00,16.0,3.1,30.33,WNW,292,13.0,31.0,56,0.00,,,0.00,Weather View 32 v70,2013-01-27 16:30:00,
2013-01-27 12:00:00,17.0,2.0,30.32,West,270,19.0,32.0,51,0.00,,,0.00,Weather View 32 v70,2013-01-27 17:00:00,
2013-01-27 12:01:00,17.0,2.0,30.32,West,270,19.0,32.0,51,0.00,,,0.00,Weather View 32 v70,2013-01-27 17:01:00,
2013-01-27 12:31:00,17.0,2.0,30.31,SSW,202,7.0,32.0,51,0.00,,,0.00,Weather View 32 v70,2013-01-27 17:31:00,
2013-01-27 13:00:00,19.0,3.0,30.29,West,270,10.0,31.0,49,0.00,,,0.00,Weather View 32 v70,2013-01-27 18:00:00,
2013-01-27 13:02:00,19.0,3.0,30.29,West,270,10.0,31.0,49,0.00,,,0.00,Weather View 32 v70,2013-01-27 18:02:00,
2013-01-27 14:00:00,19.0,3.0,30.30,WSW,247,17.0,28.0,49,0.00,,,0.00,Weather View 32 v70,2013-01-27 19:00:00,
2013-01-27 14:01:00,19.0,3.0,30.30,WSW,247,17.0,28.0,49,0.00,,,0.00,Weather View 32 v70,2013-01-27 19:01:00,
2013-01-27 14:31:00,20.0,3.0,30.31,NW,315,10.0,28.0,47,0.00,,,0.00,Weather View 32 v70,2013-01-27 19:31:00,
2013-01-27 15:00:00,21.0,4.4,30.30,WNW,292,11.0,28.0,48,0.00,,,0.00,Weather View 32 v70,2013-01-27 20:00:00,
2013-01-27 15:01:00,21.0,4.4,30.30,WNW,292,11.0,28.0,48,0.00,,,0.00,Weather View 32 v70,2013-01-27 20:01:00,
2013-01-27 15:30:00,20.0,3.5,30.31,NW,315,12.0,28.0,48,0.00,,,0.00,Weather View 32 v70,2013-01-27 20:30:00,
2013-01-27 16:01:00,20.0,3.9,30.33,WSW,247,6.0,25.0,49,0.00,,,0.00,Weather View 32 v70,2013-01-27 21:01:00,
2013-01-27 16:32:00,18.0,3.3,30.35,WSW,247,9.0,25.0,52,0.00,,,0.00,Weather View 32 v70,2013-01-27 21:32:00,
2013-01-27 17:02:00,17.0,4.4,30.36,North,360,8.0,22.0,57,0.00,,,0.00,Weather View 32 v70,2013-01-27 22:02:00,
2013-01-27 17:31:00,16.0,4.9,30.37,WNW,292,11.0,18.0,61,0.00,,,0.00,Weather View 32 v70,2013-01-27 22:31:00,
2013-01-27 17:37:00,16.0,4.9,30.37,WNW,292,11.0,18.0,61,0.00,,,0.00,Weather View 32 v70,2013-01-27 22:37:00,
2013-01-27 18:01:00,16.0,5.3,30.39,West,270,8.0,17.0,62,0.00,,,0.00,Weather View 32 v70,2013-01-27 23:01:00,
2013-01-27 18:30:00,15.0,4.3,30.41,WNW,292,10.0,19.0,62,0.00,,,0.00,Weather View 32 v70,2013-01-27 23:30:00,
2013-01-27 18:32:00,15.0,4.3,30.41,WNW,292,10.0,19.0,62,0.00,,,0.00,Weather View 32 v70,2013-01-27 23:32:00,
2013-01-27 19:01:00,14.0,4.1,30.43,WNW,292,10.0,19.0,64,0.00,,,0.00,Weather View 32 v70,2013-01-28 00:01:00,
2013-01-27 19:30:00,13.0,4.1,30.43,WNW,292,9.0,20.0,67,0.00,,,0.00,Weather View 32 v70,2013-01-28 00:30:00,
2013-01-27 19:32:00,13.0,4.1,30.43,WNW,292,9.0,20.0,67,0.00,,,0.00,Weather View 32 v70,2013-01-28 00:32:00,
2013-01-27 20:01:00,13.0,5.4,30.44,WSW,247,7.0,20.0,71,0.00,,,0.00,Weather View 32 v70,2013-01-28 01:01:00,
2013-01-27 20:30:00,12.0,5.0,30.45,SSW,202,5.0,25.0,73,0.00,,,0.00,Weather View 32 v70,2013-01-28 01:30:00,
2013-01-27 20:31:00,12.0,5.0,30.45,SSW,202,5.0,25.0,73,0.00,,,0.00,Weather View 32 v70,2013-01-28 01:31:00,
2013-01-27 21:03:00,12.0,5.6,30.46,WNW,292,10.0,25.0,75,0.00,,,0.00,Weather View 32 v70,2013-01-28 02:03:00,
2013-01-27 21:30:00,11.0,5.2,30.47,West,270,12.0,20.0,77,0.00,,,0.00,Weather View 32 v70,2013-01-28 02:30:00,
2013-01-27 21:34:00,11.0,5.2,30.47,West,270,12.0,20.0,77,0.00,,,0.00,Weather View 32 v70,2013-01-28 02:34:00,
2013-01-27 22:00:00,11.0,5.2,30.46,WNW,292,10.0,20.0,77,0.00,,,0.00,Weather View 32 v70,2013-01-28 03:00:00,
2013-01-27 22:30:00,10.0,4.8,30.46,WSW,247,11.0,19.0,79,0.00,,,0.00,Weather View 32 v70,2013-01-28 03:30:00,
2013-01-27 22:31:00,10.0,4.8,30.46,WSW,247,11.0,19.0,79,0.00,,,0.00,Weather View 32 v70,2013-01-28 03:31:00,
2013-01-27 23:00:00,10.0,5.3,30.46,WNW,292,12.0,19.0,81,0.00,,,0.00,Weather View 32 v70,2013-01-28 04:00:00,
2013-01-27 23:30:00,9.0,4.9,30.46,WNW,292,11.0,19.0,83,0.00,,,0.00,Weather View 32 v70,2013-01-28 04:30:00,
2013-01-27 23:31:00,9.0,4.9,30.46,WNW,292,11.0,19.0,83,0.00,,,0.00,Weather View 32 v70,2013-01-28 04:31:00,